Hattiesburg, MS

1:18 PM CDT on August 29, 2016 (GMT -0500)
Chain Municipal

Weather History for KHBG - December, 2012

Change the Weather History Date:

Sunday, December 16, 2012

  Actual Average Record
Temperature  
Mean Temperature 66 °F 51 °F  
Max Temperature 75 °F 61 °F 78 °F (1984)
Min Temperature 57 °F 40 °F 19 °F (1955)
Degree Days  
Heating Degree Days 0 15  
Month to date heating degree days 99 222  
Since 1 July heating degree days 484 550  
Cooling Degree Days 1 0  
Month to date cooling degree days 19 12  
Year to date cooling degree days 2733 2402  
Growing Degree Days 16 (Base 50)    
Moisture  
Dew Point 59 °F    
Average Humidity 81    
Maximum Humidity 97    
Minimum Humidity 64    
Precipitation  
Precipitation 0.53 in 0.16 in 1.87 in (1970)
Month to date precipitation 1.71 2.56  
Year to date precipitation 62.55 56.82  
Sea Level Pressure  
Sea Level Pressure 29.91 in    
Wind  
Wind Speed 5 mph (South)    
Max Wind Speed 16 mph    
Max Gust Speed 23 mph    
Visibility 8 miles    
Events Rain    
T = Trace of Precipitation, MM = Missing Value Source: NWS Daily Summary

Daily Weather History Graph

Daily Weather History Graph

Search for Another Location

Airport or City:

Trip Planner

Search our weather history database for the weather conditions in past years. The results will help you decide how hot, cold, wet, or windy it might be!

Date:

Astronomy

Dec. 16, 2012 Rise Set
Actual Time 6:49 AM CST 4:56 PM CST
Civil Twilight 6:22 AM CST 5:23 PM CST
Nautical Twilight 5:52 AM CST 5:53 PM CST
Astronomical Twilight 5:22 AM CST 6:23 PM CST
Moon 9:33 AM CST (12/16) 8:58 PM CST (12/16)
Length of Visible Light 11h 00m
Length of Day
10h 07m
Waxing Crescent, 16% of the Moon is Illuminated
Dec 16
Waxing Crescent
Dec 19
First Quarter
Dec 28
Full
Jan 4
Last Quarter
Jan 11
New

Hourly Weather History & Observations

Time (CST) Temp. Dew Point Humidity Pressure Visibility Wind Dir Wind Speed Gust Speed Precip Events Conditions
12:53 AM 61.0 °F 59.0 °F 93% 29.96 in 8.0 mi SSE 4.6 mph - N/A   Clear
1:53 AM 61.0 °F 59.0 °F 93% 29.96 in 10.0 mi South 3.5 mph - N/A   Clear
2:53 AM 57.0 °F 55.0 °F 93% 29.95 in 9.0 mi SSE 4.6 mph - N/A   Clear
3:53 AM 61.0 °F 59.0 °F 93% 29.94 in 10.0 mi South 3.5 mph - N/A   Partly Cloudy
4:38 AM 62.6 °F 59.0 °F 88% 29.93 in 10.0 mi Calm Calm - N/A   Mostly Cloudy
4:53 AM 62.1 °F 59.0 °F 90% 29.93 in 10.0 mi Calm Calm - N/A   Overcast
5:00 AM 60.8 °F 59.0 °F 94% 29.94 in 9.0 mi Calm Calm - N/A   Overcast
5:14 AM 60.8 °F 57.2 °F 88% 29.93 in 9.0 mi SSE 3.5 mph - N/A   Mostly Cloudy
5:53 AM 61.0 °F 59.0 °F 93% 29.94 in 8.0 mi Calm Calm - N/A   Mostly Cloudy
7:17 AM 59.0 °F 55.4 °F 88% 29.97 in 8.0 mi SE 3.5 mph - N/A   Mostly Cloudy
7:27 AM 59.0 °F 57.2 °F 94% 29.97 in 4.0 mi Calm Calm - N/A   Mostly Cloudy
7:34 AM 60.8 °F 57.2 °F 88% 29.97 in 4.0 mi SSE 3.5 mph - N/A   Mostly Cloudy
7:53 AM 62.1 °F 60.1 °F 93% 29.95 in 6.0 mi SSE 4.6 mph - N/A   Partly Cloudy
8:53 AM 66.0 °F 63.0 °F 90% 29.93 in 10.0 mi South 5.8 mph - N/A   Partly Cloudy
9:53 AM 71.1 °F 63.0 °F 75% 29.92 in 10.0 mi South 8.1 mph - N/A   Mostly Cloudy
10:53 AM 73.0 °F 63.0 °F 71% 29.91 in 10.0 mi South 9.2 mph - N/A   Overcast
11:53 AM 73.9 °F 63.0 °F 68% 29.92 in 10.0 mi SSW 9.2 mph - N/A   Mostly Cloudy
12:53 PM 75.0 °F 62.1 °F 64% 29.88 in 10.0 mi SSW 11.5 mph 19.6 mph N/A   Mostly Cloudy
1:53 PM 75.0 °F 62.1 °F 64% 29.85 in 10.0 mi SSW 6.9 mph - N/A   Mostly Cloudy
2:53 PM 73.0 °F 62.1 °F 68% 29.83 in 10.0 mi WSW 6.9 mph - N/A   Mostly Cloudy
3:12 PM 66.2 °F 55.4 °F 68% 29.86 in 10.0 mi NW 13.8 mph 20.7 mph N/A   Overcast
3:48 PM 62.6 °F 55.4 °F 77% 29.88 in 10.0 mi NNW 11.5 mph 23.0 mph 0.00 in Rain Light Rain
4:12 PM 60.8 °F 57.2 °F 88% 29.90 in 2.5 mi NNW 8.1 mph - 0.06 in Rain Heavy Rain
4:19 PM 60.8 °F 57.2 °F 88% 29.91 in 2.0 mi NNW 6.9 mph - 0.08 in Rain Heavy Rain
4:29 PM 60.8 °F 57.2 °F 88% 29.92 in 1.8 mi NW 9.2 mph - 0.14 in Rain Heavy Rain
4:51 PM 60.8 °F 57.2 °F 88% 29.93 in 2.5 mi NNW 4.6 mph - 0.24 in Rain Heavy Rain
4:53 PM 60.1 °F 57.9 °F 93% 29.92 in 3.0 mi NNW 6.9 mph - 0.25 in Rain Rain
5:53 PM 60.1 °F 57.9 °F 93% 29.91 in 10.0 mi Calm Calm - 0.06 in Rain Light Rain
6:53 PM 60.1 °F 57.9 °F 93% 29.89 in 10.0 mi East 3.5 mph - 0.02 in Rain Light Rain
7:01 PM 60.8 °F 57.2 °F 88% 29.89 in 10.0 mi East 3.5 mph - 0.00 in Rain Light Rain
7:14 PM 60.8 °F 57.2 °F 88% 29.89 in 10.0 mi East 3.5 mph - 0.00 in   Overcast
7:53 PM 60.1 °F 57.9 °F 93% 29.88 in 10.0 mi Variable 4.6 mph - 0.01 in Rain Light Rain
8:05 PM 60.8 °F 57.2 °F 88% 29.88 in 5.0 mi SE 9.2 mph - 0.05 in Rain Heavy Rain
8:53 PM 62.1 °F 57.9 °F 86% 29.86 in 10.0 mi South 13.8 mph - 0.15 in Rain Light Rain
9:53 PM 62.1 °F 57.9 °F 86% 29.86 in 10.0 mi South 8.1 mph - 0.01 in Rain Light Rain
10:53 PM 61.0 °F 59.0 °F 93% 29.84 in 10.0 mi Calm Calm - 0.03 in   Mostly Cloudy
11:53 PM 61.0 °F 57.9 °F 90% 29.84 in 10.0 mi Calm Calm - 0.00 in Rain Light Rain